TimeCST,TemperatureF,Dew PointF,Humidity,Sea Level PressureIn,VisibilityMPH,Wind Direction,Wind SpeedMPH,Gust SpeedMPH,PrecipitationIn,Events,Conditions,WindDirDegrees,DateUTC
12:15 AM,30.2,30.2,100,29.90,5.0,North,11.5,-,N/A,Snow,Light Snow,350,2013-03-06 06:15:00
12:35 AM,30.2,30.2,100,29.91,10.0,North,11.5,16.1,N/A,,Overcast,350,2013-03-06 06:35:00
12:55 AM,32.0,30.2,93,29.92,10.0,North,12.7,17.3,N/A,,Overcast,350,2013-03-06 06:55:00
1:15 AM,32.0,30.2,93,29.93,10.0,North,12.7,-,N/A,,Overcast,350,2013-03-06 07:15:00
1:35 AM,32.0,28.4,87,29.94,10.0,North,10.4,19.6,N/A,,Overcast,360,2013-03-06 07:35:00
1:55 AM,30.2,28.4,93,29.95,10.0,North,10.4,-,N/A,,Mostly Cloudy,350,2013-03-06 07:55:00
2:15 AM,32.0,28.4,87,29.96,10.0,NNW,9.2,-,N/A,,Mostly Cloudy,340,2013-03-06 08:15:00
2:35 AM,32.0,28.4,87,29.96,10.0,NNW,6.9,-,N/A,,Overcast,340,2013-03-06 08:35:00
2:55 AM,32.0,28.4,87,29.96,10.0,NNW,9.2,-,N/A,,Overcast,340,2013-03-06 08:55:00
3:15 AM,32.0,28.4,87,29.98,10.0,NNW,8.1,-,N/A,,Overcast,340,2013-03-06 09:15:00
3:35 AM,32.0,28.4,87,29.99,10.0,NNW,9.2,-,N/A,,Overcast,340,2013-03-06 09:35:00
3:55 AM,32.0,28.4,87,29.99,10.0,North,10.4,16.1,N/A,,Overcast,350,2013-03-06 09:55:00
4:15 AM,32.0,28.4,87,30.01,10.0,NNW,10.4,16.1,N/A,,Mostly Cloudy,330,2013-03-06 10:15:00
4:55 AM,32.0,28.4,87,30.04,10.0,NW,12.7,17.3,N/A,,Overcast,320,2013-03-06 10:55:00
5:15 AM,32.0,28.4,87,30.05,10.0,NNW,11.5,-,N/A,,Overcast,330,2013-03-06 11:15:00
5:35 AM,32.0,28.4,87,30.07,10.0,NNW,10.4,-,N/A,,Overcast,340,2013-03-06 11:35:00
5:55 AM,32.0,30.2,93,30.08,10.0,NNW,11.5,16.1,N/A,,Overcast,340,2013-03-06 11:55:00
6:15 AM,32.0,30.2,93,30.09,10.0,NNW,12.7,18.4,N/A,,Overcast,330,2013-03-06 12:15:00
6:35 AM,32.0,30.2,93,30.10,10.0,NNW,11.5,19.6,N/A,,Overcast,330,2013-03-06 12:35:00
6:55 AM,32.0,28.4,87,30.11,10.0,NW,9.2,21.9,N/A,,Overcast,320,2013-03-06 12:55:00
7:15 AM,30.2,28.4,93,30.12,10.0,NW,9.2,-,N/A,,Overcast,320,2013-03-06 13:15:00
7:35 AM,32.0,28.4,87,30.12,10.0,NNW,11.5,16.1,N/A,,Overcast,340,2013-03-06 13:35:00
8:15 AM,32.0,28.4,87,30.14,10.0,NW,8.1,-,N/A,,Overcast,320,2013-03-06 14:15:00
8:35 AM,32.0,30.2,93,30.15,10.0,NW,13.8,17.3,N/A,,Overcast,320,2013-03-06 14:35:00
8:55 AM,32.0,30.2,93,30.16,10.0,NW,11.5,-,N/A,,Overcast,310,2013-03-06 14:55:00
9:15 AM,32.0,30.2,93,30.17,10.0,WNW,8.1,-,N/A,,Overcast,290,2013-03-06 15:15:00
9:35 AM,32.0,28.4,87,30.18,7.0,WNW,11.5,-,N/A,,Overcast,300,2013-03-06 15:35:00
9:55 AM,32.0,28.4,87,30.19,5.0,WNW,10.4,-,N/A,,Overcast,300,2013-03-06 15:55:00
10:15 AM,32.0,30.2,93,30.19,5.0,WNW,11.5,-,N/A,,Overcast,300,2013-03-06 16:15:00
10:55 AM,32.0,30.2,93,30.20,7.0,WNW,12.7,17.3,N/A,,Overcast,300,2013-03-06 16:55:00
11:15 AM,32.0,30.2,93,30.20,7.0,WNW,11.5,-,N/A,,Overcast,300,2013-03-06 17:15:00
11:35 AM,32.0,30.2,93,30.21,10.0,WNW,11.5,-,N/A,,Overcast,300,2013-03-06 17:35:00
11:55 AM,32.0,30.2,93,30.21,10.0,WNW,9.2,18.4,N/A,,Overcast,290,2013-03-06 17:55:00
12:15 PM,32.0,30.2,93,30.20,10.0,WNW,11.5,16.1,N/A,,Overcast,300,2013-03-06 18:15:00
12:55 PM,32.0,30.2,93,30.20,10.0,NW,11.5,17.3,N/A,,Overcast,310,2013-03-06 18:55:00
1:15 PM,32.0,30.2,93,30.20,10.0,WNW,9.2,-,N/A,,Overcast,290,2013-03-06 19:15:00
1:35 PM,32.0,30.2,93,30.20,10.0,WNW,8.1,-,N/A,,Overcast,300,2013-03-06 19:35:00
1:55 PM,32.0,30.2,93,30.20,10.0,WNW,9.2,-,N/A,,Overcast,290,2013-03-06 19:55:00
2:15 PM,32.0,30.2,93,30.20,10.0,WNW,6.9,-,N/A,,Overcast,290,2013-03-06 20:15:00
2:35 PM,32.0,30.2,93,30.21,10.0,West,10.4,-,N/A,,Overcast,280,2013-03-06 20:35:00
2:55 PM,32.0,30.2,93,30.22,10.0,WNW,9.2,-,N/A,,Overcast,290,2013-03-06 20:55:00
3:15 PM,32.0,30.2,93,30.22,10.0,West,10.4,-,N/A,,Overcast,280,2013-03-06 21:15:00
3:35 PM,32.0,30.2,93,30.23,10.0,West,12.7,17.3,N/A,,Overcast,280,2013-03-06 21:35:00
3:55 PM,32.0,30.2,93,30.23,10.0,WNW,12.7,16.1,N/A,,Overcast,290,2013-03-06 21:55:00
4:15 PM,32.0,30.2,93,30.24,10.0,West,12.7,17.3,N/A,,Overcast,280,2013-03-06 22:15:00
4:35 PM,32.0,30.2,93,30.24,10.0,WNW,15.0,18.4,N/A,,Overcast,290,2013-03-06 22:35:00
4:55 PM,32.0,30.2,93,30.25,10.0,WNW,10.4,-,N/A,,Overcast,290,2013-03-06 22:55:00
5:15 PM,32.0,30.2,93,30.25,10.0,WNW,11.5,-,N/A,,Overcast,290,2013-03-06 23:15:00
5:35 PM,32.0,30.2,93,30.26,10.0,WNW,10.4,-,N/A,,Overcast,290,2013-03-06 23:35:00
5:55 PM,32.0,30.2,93,30.27,10.0,West,9.2,-,N/A,,Overcast,280,2013-03-06 23:55:00
6:15 PM,32.0,30.2,93,30.27,10.0,West,6.9,-,N/A,,Overcast,280,2013-03-07 00:15:00
6:35 PM,32.0,30.2,93,30.27,10.0,West,9.2,-,N/A,,Overcast,270,2013-03-07 00:35:00
6:55 PM,32.0,30.2,93,30.28,10.0,West,9.2,-,N/A,,Overcast,280,2013-03-07 00:55:00
7:15 PM,32.0,30.2,93,30.28,10.0,West,9.2,-,N/A,,Overcast,280,2013-03-07 01:15:00
7:35 PM,32.0,28.4,87,30.29,10.0,West,9.2,-,N/A,,Overcast,280,2013-03-07 01:35:00
7:55 PM,32.0,28.4,87,30.28,10.0,WNW,8.1,-,N/A,,Overcast,290,2013-03-07 01:55:00
8:15 PM,32.0,28.4,87,30.28,10.0,WNW,9.2,-,N/A,,Overcast,290,2013-03-07 02:15:00
8:35 PM,32.0,28.4,87,30.28,10.0,NW,5.8,-,N/A,,Overcast,310,2013-03-07 02:35:00
8:55 PM,32.0,28.4,87,30.28,10.0,WNW,6.9,-,N/A,,Overcast,300,2013-03-07 02:55:00
9:15 PM,32.0,28.4,87,30.28,10.0,WNW,5.8,-,N/A,,Overcast,300,2013-03-07 03:15:00
9:35 PM,32.0,28.4,87,30.28,10.0,West,9.2,-,N/A,,Overcast,280,2013-03-07 03:35:00
9:55 PM,32.0,28.4,87,30.29,10.0,WNW,8.1,-,N/A,,Overcast,290,2013-03-07 03:55:00
10:15 PM,30.2,28.4,93,30.29,10.0,WNW,8.1,-,N/A,,Overcast,290,2013-03-07 04:15:00
10:35 PM,30.2,28.4,93,30.29,10.0,WNW,8.1,-,N/A,,Overcast,290,2013-03-07 04:35:00
10:55 PM,30.2,28.4,93,30.28,10.0,West,8.1,-,N/A,,Overcast,280,2013-03-07 04:55:00
11:15 PM,30.2,28.4,93,30.29,10.0,WNW,5.8,-,N/A,,Overcast,290,2013-03-07 05:15:00
11:35 PM,30.2,28.4,93,30.28,7.0,WNW,4.6,-,N/A,,Overcast,300,2013-03-07 05:35:00
11:55 PM,30.2,28.4,93,30.28,7.0,WNW,3.5,-,N/A,,Overcast,300,2013-03-07 05:55:00